CORIOLIS

Last updated on Fri Oct 24 2025 00:03:39 GMT+0000 (Coordinated Universal Time)

1 27640U 03001A 25296.49811102 .00000232 00000+0 13001-3 0 9997 2 27640 98.7158 302.0119 0014159 170.3824 189.7626 14.19844789180632
UTC large
Height (km)
Speed (km/s)
/
Latitude / Longitude
Inclination (degrees)
Orbital Period (minutes)
Azimuth
Elevation
Range (km)
Doppler Factor

Next 0 passes for location: London (51.5072 / 0.1276)

Sorry there are no passes over London.